Dewpoint
-8 -9 -10 -11 -12 -14 -17 -15 -12 -11 -13 -14 -12 -6 -4 -4 -4 -4 -6 -11 -10 -10 -11 -10 -10 -9 -9 -8 -8 -9 -10 -11 -11 -12 -12 -12 -12 -11 -10 -10 -10 -9 -8
-8 -10 -11 -12 -13 -16 -13 -10 -9 -9 -11 -13 -11 -6 -6 -5 -4 -6 -10 -9 -9 -9 -10 -10 -9 -8 -9 -9 -9 -10 -10 -11 -11 -12 -13 -12 -11 -10 -10 -9 -9 -9 -9
-10 -11 -12 -12 -13 -12 -10 -9 -9 -10 -11 -11 -8 -6 -3 -4 -4 -10 -9 -8 -9 -9 -9 -10 -11 -10 -9 -10 -10 -10 -11 -11 -11 -11 -12 -11 -11 -11 -9 -9 -9 -9 -9
-11 -12 -11 -11 -11 -10 -9 -9 -9 -9 -10 -9 -7 -5 -5 -5 -6 -8 -8 -9 -9 -10 -11 -12 -15 -16 -12 -11 -11 -11 -11 -11 -11 -11 -11 -12 -11 -11 -10 -9 -10 -10 -10
-12 -10 -11 -11 -10 -9 -8 -9 -9 -9 -8 -8 -7 -7 -6 -4 -5 -6 -9 -9 -10 -11 -14 -18 -19 -17 -16 -14 -12 -11 -12 -11 -11 -11 -12 -12 -12 -12 -11 -11 -10 -9 -9
-11 -10 -11 -10 -11 -9 -9 -9 -9 -9 -8 -6 -6 -7 -6 -7 -8 -9 -9 -10 -11 -15 -19 -18 -17 -16 -12 -12 -14 -13 -12 -12 -11 -11 -12 -10 -11 -11 -11 -11 -10 -10 -10
-10 -12 -12 -14 -11 -9 -9 -10 -9 -8 -8 -7 -6 -7 -7 -8 -8 -9 -10 -12 -15 -19 -18 -16 -13 -12 -13 -13 -12 -12 -12 -12 -12 -12 -11 -11 -12 -12 -11 -10 -10 -10 -9
-14 -15 -17 -13 -10 -10 -10 -9 -8 -9 -9 -7 -8 -7 -7 -7 -9 -9 -12 -15 -18 -19 -17 -14 -12 -13 -13 -13 -12 -12 -12 -12 -11 -11 -11 -11 -11 -11 -11 -11 -11 -10 -10
-18 -17 -14 -11 -12 -12 -8 -7 -7 -9 -8 -8 -8 -8 -7 -9 -9 -11 -14 -16 -18 -18 -16 -13 -13 -13 -13 -13 -13 -12 -12 -12 -12 -12 -12 -12 -12 -12 -12 -11 -11 -10 -10
-18 -15 -14 -13 -14 -12 -6 -6 -7 -9 -8 -8 -8 -7 -8 -9 -10 -13 -15 -16 -18 -17 -15 -17 -16 -14 -13 -13 -13 -13 -13 -12 -13 -12 -12 -11 -11 -11 -11 -12 -11 -10 -10
-15 -15 -14 -15 -14 -11 -7 -6 -7 -10 -9 -8 -8 -8 -8 -9 -11 -13 -14 -15 -16 -15 -17 -25 -20 -17 -15 -15 -14 -14 -13 -14 -13 -13 -12 -12 -11 -11 -11 -11 -11 -11 -11
-15 -14 -15 -14 -12 -9 -6 -7 -7 -9 -9 -8 -8 -9 -9 -10 -12 -13 -14 -15 -19 -17 -18 -28 -30 -23 -23 -21 -17 -15 -15 -15 -13 -13 -13 -12 -12 -12 -11 -11 -11 -11 -10
-15 -15 -15 -12 -11 -7 -6 -6 -6 -9 -8 -8 -8 -9 -9 -10 -11 -12 -13 -14 -18 -18 -17 -28 -31 -27 -26 -23 -20 -17 -16 -16 -14 -13 -13 -12 -12 -11 -11 -10 -10 -10 -10
-15 -14 -11 -9 -8 -6 -7 -6 -7 -10 -10 -8 -9 -9 -10 -11 -11 -12 -13 -14 -16 -19 -18 -23 -30 -28 -28 -26 -24 -21 -22 -18 -14 -13 -13 -12 -11 -11 -11 -10 -10 -9 -9
-14 -11 -9 -9 -7 -7 -7 -7 -7 -9 -9 -9 -9 -10 -10 -11 -11 -11 -12 -14 -14 -17 -19 -19 -25 -29 -29 -28 -28 -30 -30 -21 -15 -14 -13 -12 -12 -12 -11 -11 -10 -10 -9
-11 -9 -9 -8 -8 -8 -7 -7 -8 -9 -9 -9 -11 -11 -10 -11 -11 -11 -12 -13 -14 -15 -19 -18 -19 -23 -28 -29 -29 -29 -30 -31 -21 -14 -14 -13 -13 -12 -12 -12 -11 -10 -10
-9 -8 -8 -8 -7 -7 -7 -7 -8 -8 -9 -9 -10 -11 -11 -11 -11 -11 -12 -13 -13 -14 -17 -20 -18 -19 -21 -26 -29 -29 -29 -29 -30 -18 -14 -14 -13 -13 -13 -13 -12 -12 -11
-9 -8 -8 -8 -8 -7 -7 -7 -8 -8 -8 -9 -11 -10 -11 -11 -11 -11 -11 -12 -13 -14 -14 -17 -20 -21 -20 -21 -22 -22 -24 -26 -28 -30 -27 -21 -17 -14 -14 -13 -13 -13 -13
-8 -7 -7 -7 -7 -8 -7 -7 -8 -10 -9 -10 -11 -10 -11 -11 -11 -11 -11 -12 -13 -13 -14 -15 -17 -19 -22 -23 -26 -26 -22 -20 -21 -23 -28 -28 -25 -23 -20 -15 -14 -14 -14
-8 -8 -8 -8 -8 -8 -7 -7 -8 -9 -10 -10 -10 -10 -11 -11 -11 -12 -11 -12 -13 -13 -14 -14 -15 -16 -18 -19 -20 -22 -27 -28 -26 -24 -24 -25 -28 -27 -26 -22 -17 -17 -15
-8 -8 -8 -8 -8 -8 -8 -7 -8 -10 -10 -11 -11 -11 -11 -11 -11 -11 -12 -12 -13 -13 -14 -15 -15 -15 -16 -16 -17 -18 -18 -20 -23 -21 -23 -25 -26 -28 -29 -28 -21 -22 -17
-8 -8 -8 -9 -9 -8 -8 -7 -8 -10 -11 -11 -11 -11 -10 -10 -10 -11 -12 -12 -13 -13 -13 -14 -15 -15 -15 -15 -15 -16 -16 -15 -16 -16 -19 -23 -24 -26 -30 -31 -30 -27 -25
-7 -8 -9 -9 -9 -8 -8 -7 -7 -8 -9 -10 -10 -10 -10 -11 -11 -11 -11 -12 -12 -12 -13 -14 -15 -15 -15 -15 -15 -15 -16 -15 -15 -15 -16 -17 -17 -17 -24 -31 -31 -31 -31
-8 -9 -9 -10 -9 -8 -8 -8 -8 -8 -9 -9 -9 -9 -9 -9 -10 -11 -11 -11 -12 -12 -13 -14 -15 -15 -15 -15 -15 -15 -15 -15 -15 -15 -16 -16 -16 -16 -17 -25 -30 -28 -28
-8 -9 -9 -9 -9 -8 -8 -8 -8 -8 -8 -8 -8 -8 -8 -8 -8 -9 -10 -11 -11 -11 -12 -13 -14 -15 -15 -14 -15 -15 -15 -16 -16 -16 -16 -16 -16 -16 -17 -19 -20 -25 -26
-9 -8 -9 -8 -9 -9 -8 -8 -8 -8 -8 -8 -8 -8 -8 -8 -8 -8 -8 -9 -11 -11 -11 -13 -14 -15 -14 -14 -14 -15 -15 -16 -16 -16 -16 -16 -16 -17 -17 -19 -20 -20 -21
Wind_Speed
4 7 9 14 20 24 20 18 21 25 27 24 20 20 20 23 21 23 20 15 17 23 23 25 25 27 27 23 24 25 24 24 31 41 32 30 30 27 26 25 25 24 22
6 9 13 18 22 21 19 19 22 27 28 25 21 18 18 20 22 21 13 13 23 24 24 26 29 28 29 25 24 24 25 25 27 35 33 28 25 25 25 24 22 21 23
9 12 16 21 21 18 16 19 25 29 28 23 19 18 21 18 18 13 14 21 22 22 26 30 32 30 27 25 25 26 24 23 23 26 33 27 26 22 21 20 20 24 23
11 16 20 19 18 18 19 23 27 29 25 21 21 19 23 17 11 15 19 20 20 26 30 32 33 31 27 25 24 24 23 22 22 24 27 26 22 21 19 18 17 17 21
15 19 20 19 21 20 21 26 28 25 22 20 20 18 16 16 13 17 15 22 25 31 31 30 31 30 26 22 19 20 21 22 22 21 24 24 22 20 19 18 18 17 20
17 21 19 20 20 20 24 26 25 22 21 19 19 19 15 11 10 16 21 25 29 28 28 29 27 23 18 20 19 16 16 23 24 24 25 22 21 20 19 17 16 14 15
20 21 20 20 19 21 24 25 22 21 20 19 18 16 13 11 17 20 24 26 25 25 27 26 21 18 18 17 18 22 22 21 22 24 24 23 22 20 19 18 17 15 14
21 21 20 19 20 23 25 22 21 21 17 15 16 15 12 17 18 23 24 23 22 23 24 21 18 18 17 17 21 20 18 20 19 17 19 21 21 20 19 21 17 17 17
21 20 19 20 22 24 24 21 20 19 12 14 15 14 15 16 22 23 22 21 21 22 21 17 17 17 17 17 19 19 20 18 17 20 19 20 20 20 20 18 19 14 16
19 19 20 22 25 25 21 20 20 16 15 16 16 16 15 20 21 20 19 20 20 21 19 19 19 17 16 18 18 18 18 19 20 18 16 14 13 14 14 15 16 15 14
18 20 22 23 25 20 18 20 17 15 14 15 14 15 18 19 19 18 18 19 18 18 20 20 18 18 18 18 16 13 17 20 19 16 15 13 13 12 11 9 11 17 18
20 21 23 24 23 18 17 20 19 16 14 14 14 16 18 19 17 17 17 18 17 18 19 20 19 19 20 18 16 15 16 18 15 14 13 12 12 12 11 10 10 12 13
21 23 24 24 21 17 19 19 18 15 15 15 16 18 18 18 16 16 17 17 17 17 18 19 19 18 19 18 16 16 17 16 13 13 14 13 13 11 10 10 8 9 11
24 24 22 22 21 19 19 17 15 14 13 14 17 19 18 16 16 16 17 17 17 17 17 18 18 16 16 15 15 14 15 14 13 13 13 12 11 12 11 12 9 5 7
23 21 20 20 20 20 15 14 14 13 13 15 18 18 16 15 14 15 16 16 17 17 17 16 16 16 16 15 15 16 16 14 10 11 12 13 12 13 13 12 11 11 7
20 18 19 17 19 18 15 15 14 15 15 15 16 13 13 15 15 15 15 14 15 16 15 15 15 15 16 16 16 16 17 17 13 10 12 13 13 13 13 12 9 9 8
18 19 18 19 18 18 16 16 17 17 18 17 17 14 16 16 15 15 15 14 15 16 15 14 14 14 15 15 15 15 16 17 16 13 12 12 12 11 11 11 11 10 8
17 17 18 19 19 19 18 18 19 21 21 18 18 16 15 15 15 15 15 16 15 16 15 14 13 13 14 14 14 14 14 15 15 15 14 13 12 12 11 11 10 11 9
18 19 21 19 19 19 19 20 21 20 20 21 19 18 17 16 16 16 17 17 16 16 16 14 14 13 13 14 14 14 14 14 14 15 15 13 13 12 11 10 10 9 10
21 21 22 20 21 22 21 21 22 20 20 21 21 20 16 15 17 17 18 18 17 16 15 14 13 13 13 13 14 14 13 13 13 13 13 13 13 12 12 10 10 10 9
20 21 19 20 23 22 22 21 22 21 20 20 19 18 18 19 18 19 19 20 19 17 15 15 13 13 12 12 13 13 13 13 13 13 13 13 12 11 11 10 9 10 9
23 23 22 21 21 21 20 20 22 19 20 20 19 18 20 23 24 21 21 21 19 20 18 17 15 14 13 12 13 13 12 12 12 12 12 12 11 11 11 10 9 9 8
25 25 24 22 20 20 21 21 24 22 21 22 21 20 20 23 24 24 22 20 20 21 20 19 17 15 14 13 13 13 12 12 12 11 11 11 11 11 10 9 9 9 8
22 22 23 22 19 19 20 20 21 24 26 26 26 26 25 25 24 26 25 24 23 21 22 21 19 16 15 14 13 13 12 11 11 11 10 10 10 10 9 8 8 8 8
20 21 22 20 20 19 19 20 22 25 26 28 29 30 29 31 30 28 27 27 26 25 23 23 21 19 16 14 13 13 12 11 10 10 10 9 9 9 8 8 7 7 7
22 20 19 20 20 20 21 21 21 22 24 25 25 26 26 26 28 30 32 28 28 27 25 24 22 20 17 15 13 12 12 11 10 9 9 9 8 8 8 7 7 7 6
Wind_Direction
315 314 323 326 328 330 329 328 329 331 332 323 303 292 295 294 296 298 288 274 290 301 295 301 302 301 298 297 296 294 292 289 289 293 294 297 296 295 290 285 275 268 271
307 310 321 326 328 329 328 330 331 330 332 324 312 299 292 289 291 292 271 284 293 295 294 298 301 301 301 300 298 295 293 291 290 292 297 300 297 296 293 286 271 255 261
297 309 317 323 329 323 316 322 326 328 329 322 315 304 299 282 290 272 283 293 295 296 301 305 305 304 303 301 299 297 295 291 288 288 293 296 299 297 294 287 278 258 260
294 309 319 322 312 304 308 319 322 327 327 322 316 309 300 302 285 285 296 296 300 305 307 307 305 304 304 304 299 298 297 293 292 289 290 295 296 293 291 298 287 264 259
300 313 317 304 304 302 308 314 322 326 323 322 321 323 310 294 290 297 297 305 309 310 310 308 307 308 308 304 301 299 298 297 295 290 292 295 294 294 292 291 293 285 262
305 313 308 305 305 302 306 314 320 320 317 312 314 314 312 305 298 304 310 313 312 312 312 313 315 318 315 311 311 309 304 304 298 291 292 292 292 293 293 287 283 297 280
308 311 307 308 303 303 310 316 317 316 314 309 310 312 300 291 305 312 313 313 314 315 319 320 320 320 320 316 316 317 313 309 303 290 288 283 286 289 293 291 276 279 280
308 308 310 309 306 310 313 314 313 315 311 311 310 306 291 301 308 312 315 315 318 322 325 325 320 320 318 322 319 316 312 309 308 304 294 287 283 285 278 280 286 274 274
307 309 310 308 309 312 308 310 313 317 302 306 309 303 300 304 310 314 316 319 323 327 328 326 323 320 320 328 319 316 316 317 310 308 303 295 290 288 280 275 277 260 266
307 308 307 308 312 309 300 306 315 309 296 294 292 289 295 306 311 314 319 323 328 330 334 331 331 329 331 326 321 318 323 322 321 317 316 320 316 304 299 264 260 262 273
309 308 308 312 312 309 298 303 308 305 296 290 278 282 299 307 309 314 320 326 328 330 333 335 333 334 332 331 330 328 316 319 324 322 316 314 314 313 312 302 263 251 254
312 312 313 312 315 307 296 302 301 300 295 284 273 286 300 304 307 314 321 329 328 333 335 335 334 335 336 336 333 325 326 330 331 334 333 328 323 317 308 295 279 273 257
315 314 311 309 315 294 290 299 298 293 284 275 275 290 298 300 305 312 321 326 329 335 335 337 339 339 339 340 337 333 333 333 338 341 341 341 345 345 348 333 304 277 264
312 311 309 310 317 304 291 292 288 287 282 276 282 288 292 295 301 308 317 323 332 335 337 340 343 346 345 346 349 352 352 347 346 349 352 355 1 5 8 8 4 302 266
308 309 311 317 314 310 295 285 280 284 285 285 292 285 284 289 296 301 312 320 328 333 337 338 341 346 354 358 1 3 6 6 359 356 3 4 3 3 6 12 28 47 52
309 308 314 314 310 309 297 290 281 294 289 285 306 285 279 286 290 296 302 311 321 331 334 335 341 345 349 354 358 2 4 7 6 1 359 0 2 3 5 5 14 26 30
307 308 311 309 302 306 292 287 287 290 292 289 293 295 284 284 283 286 295 304 313 324 328 330 334 340 343 348 352 357 1 2 4 0 354 354 355 358 359 2 7 8 6
306 302 302 302 308 297 292 280 286 286 275 282 292 284 293 279 280 280 288 294 304 312 318 323 327 330 335 337 341 346 352 358 1 2 358 353 350 347 351 358 1 2 357
310 303 298 293 297 304 291 269 286 285 273 283 289 274 289 276 273 265 277 283 291 300 305 313 320 324 326 328 329 333 340 347 352 354 356 357 355 353 346 340 341 344 349
306 301 299 292 299 294 290 271 280 277 278 281 276 274 282 277 270 270 273 276 281 290 296 301 308 317 321 324 325 327 329 331 340 348 350 350 354 355 354 350 345 345 346
308 311 308 294 301 305 283 265 273 273 276 282 274 266 272 273 278 272 272 270 273 281 286 293 299 307 313 319 320 322 324 325 329 337 343 346 347 352 355 354 353 350 350
308 313 313 309 309 304 294 266 271 277 277 278 283 280 267 270 270 273 273 270 268 274 278 282 289 295 303 310 315 316 316 318 320 326 332 337 342 346 349 354 355 355 356
296 307 308 310 304 302 294 280 264 274 278 277 280 282 280 272 273 270 272 271 268 269 270 273 277 282 290 298 305 310 311 311 313 317 322 326 329 334 342 347 354 358 359
291 298 303 307 302 300 294 290 275 271 281 279 278 279 279 279 276 271 269 268 268 270 265 265 269 272 277 287 295 302 305 306 305 309 314 320 324 327 331 336 342 350 354
297 298 302 304 301 299 298 293 283 279 281 283 285 287 287 282 278 277 271 265 264 264 267 263 263 263 266 275 286 294 298 300 297 299 305 311 317 321 323 326 325 334 344
303 297 299 298 304 302 296 294 292 291 290 289 289 288 288 289 282 279 272 267 258 260 262 261 257 255 258 265 276 286 290 290 288 290 293 298 305 313 316 315 318 319 325
Height
1559 1559 1558 1557 1555 1552 1548 1545 1542 1539 1535 1530 1526 1524 1521 1520 1517 1515 1514 1513 1511 1509 1507 1504 1501 1498 1494 1491 1488 1483 1480 1477 1469 1457 1459 1455 1451 1448 1445 1443 1442 1442 1441
1557 1557 1555 1553 1551 1548 1544 1541 1538 1534 1529 1524 1520 1517 1515 1513 1513 1510 1509 1508 1507 1504 1501 1498 1495 1491 1487 1484 1480 1476 1473 1470 1465 1455 1451 1448 1445 1442 1439 1436 1435 1435 1436
1554 1553 1551 1549 1546 1543 1540 1537 1533 1529 1524 1520 1516 1513 1511 1508 1507 1506 1505 1504 1501 1499 1496 1492 1487 1483 1479 1476 1472 1468 1465 1462 1458 1452 1443 1443 1440 1437 1433 1431 1429 1429 1429
1551 1549 1547 1544 1541 1539 1536 1532 1528 1524 1519 1515 1512 1509 1506 1504 1502 1503 1501 1499 1497 1494 1490 1485 1480 1476 1471 1468 1465 1461 1458 1454 1451 1447 1440 1437 1435 1432 1429 1427 1424 1423 1423
1547 1545 1542 1539 1537 1534 1531 1527 1523 1519 1515 1512 1508 1505 1503 1501 1499 1498 1497 1495 1491 1488 1483 1479 1473 1468 1464 1460 1457 1455 1451 1448 1444 1441 1436 1432 1429 1427 1425 1423 1421 1419 1417
1542 1540 1537 1534 1531 1529 1525 1522 1517 1514 1511 1508 1505 1502 1500 1498 1497 1495 1493 1490 1486 1481 1477 1472 1466 1461 1458 1454 1450 1448 1446 1442 1438 1435 1431 1427 1424 1422 1421 1419 1417 1416 1414
1536 1534 1531 1528 1526 1523 1520 1516 1512 1509 1506 1503 1501 1498 1497 1495 1493 1491 1488 1485 1481 1476 1471 1465 1460 1457 1453 1450 1447 1443 1440 1436 1433 1429 1425 1423 1420 1419 1417 1414 1413 1412 1411
1531 1528 1525 1522 1520 1517 1514 1511 1508 1503 1501 1499 1497 1495 1493 1492 1489 1487 1483 1480 1476 1471 1466 1461 1457 1453 1450 1446 1443 1439 1435 1432 1428 1424 1420 1417 1415 1413 1412 1410 1408 1408 1407
1524 1522 1520 1518 1514 1511 1509 1505 1503 1499 1497 1495 1493 1492 1490 1488 1485 1482 1479 1476 1472 1467 1462 1458 1454 1449 1445 1443 1439 1434 1430 1427 1423 1418 1415 1411 1409 1406 1405 1405 1403 1403 1402
1518 1516 1513 1511 1508 1505 1503 1500 1497 1495 1493 1491 1490 1488 1486 1484 1481 1478 1475 1471 1467 1463 1459 1454 1449 1445 1442 1439 1435 1430 1426 1423 1418 1413 1410 1407 1404 1402 1399 1398 1400 1399 1399
1512 1510 1507 1504 1501 1498 1497 1495 1492 1490 1488 1486 1485 1484 1482 1480 1477 1474 1471 1468 1464 1460 1455 1451 1446 1442 1438 1434 1430 1427 1423 1418 1414 1410 1407 1405 1402 1399 1397 1395 1394 1395 1396
1506 1503 1500 1497 1495 1492 1491 1489 1487 1485 1483 1482 1481 1480 1478 1476 1473 1471 1468 1464 1461 1457 1453 1448 1443 1439 1435 1431 1427 1423 1420 1416 1412 1408 1405 1402 1399 1396 1394 1392 1391 1390 1389
1501 1497 1494 1491 1488 1487 1485 1483 1481 1480 1479 1478 1477 1476 1474 1472 1469 1467 1464 1461 1458 1454 1450 1446 1441 1437 1433 1429 1425 1421 1417 1414 1410 1407 1403 1400 1397 1394 1391 1389 1387 1386 1385
1495 1492 1489 1486 1482 1481 1479 1477 1476 1475 1474 1473 1472 1471 1469 1467 1465 1463 1461 1458 1455 1451 1448 1443 1439 1435 1432 1428 1424 1420 1416 1412 1409 1406 1403 1399 1396 1394 1391 1388 1385 1383 1383
1488 1487 1485 1481 1479 1475 1473 1472 1471 1471 1470 1469 1467 1466 1465 1463 1462 1460 1458 1455 1452 1449 1445 1442 1438 1435 1431 1427 1424 1419 1415 1412 1409 1406 1403 1399 1397 1394 1391 1388 1386 1384 1383
1481 1482 1480 1476 1474 1472 1469 1468 1467 1466 1465 1464 1462 1461 1460 1459 1458 1456 1455 1452 1449 1446 1443 1440 1437 1433 1430 1426 1423 1419 1415 1412 1408 1405 1403 1400 1397 1394 1392 1390 1387 1386 1384
1477 1477 1475 1472 1469 1467 1464 1463 1463 1461 1460 1459 1458 1456 1455 1455 1453 1452 1451 1448 1446 1443 1441 1438 1435 1432 1428 1425 1422 1419 1415 1412 1408 1405 1403 1400 1398 1395 1393 1391 1388 1387 1385
1473 1472 1470 1467 1464 1461 1459 1458 1457 1456 1455 1454 1452 1451 1450 1449 1448 1447 1446 1444 1443 1440 1438 1435 1432 1430 1427 1424 1421 1418 1415 1412 1409 1405 1402 1399 1397 1395 1393 1391 1389 1387 1386
1469 1466 1465 1462 1459 1456 1454 1453 1452 1450 1449 1448 1447 1446 1445 1444 1443 1443 1442 1440 1439 1437 1434 1432 1429 1427 1424 1422 1419 1416 1413 1411 1408 1405 1402 1399 1397 1394 1392 1390 1389 1387 1385
1463 1461 1458 1455 1452 1450 1448 1447 1446 1445 1443 1442 1441 1440 1440 1438 1437 1437 1436 1435 1433 1432 1430 1428 1426 1424 1422 1419 1417 1414 1412 1409 1407 1404 1402 1399 1397 1394 1392 1390 1388 1386 1384
1458 1455 1452 1449 1445 1442 1440 1440 1439 1438 1437 1436 1434 1434 1434 1432 1431 1430 1429 1428 1428 1427 1426 1424 1422 1420 1418 1416 1414 1412 1409 1407 1405 1402 1400 1398 1396 1394 1391 1389 1387 1386 1384
1452 1449 1445 1442 1439 1436 1434 1433 1432 1431 1430 1429 1428 1428 1427 1425 1424 1424 1423 1422 1421 1421 1420 1419 1418 1416 1415 1413 1411 1409 1407 1405 1403 1400 1398 1397 1395 1393 1390 1389 1387 1385 1383
1445 1442 1438 1435 1433 1430 1428 1426 1425 1425 1424 1423 1422 1421 1420 1418 1416 1416 1415 1415 1415 1414 1414 1413 1412 1411 1410 1409 1407 1406 1404 1402 1400 1398 1396 1394 1393 1391 1389 1387 1386 1384 1383
1438 1435 1432 1429 1426 1424 1422 1420 1419 1418 1417 1416 1414 1413 1412 1410 1409 1408 1407 1407 1407 1407 1406 1406 1406 1406 1405 1404 1403 1401 1400 1398 1397 1395 1394 1392 1390 1389 1387 1386 1384 1383 1382
1431 1428 1426 1423 1420 1418 1416 1414 1412 1411 1409 1408 1406 1404 1403 1401 1400 1399 1398 1398 1398 1398 1398 1398 1398 1399 1399 1399 1398 1397 1396 1394 1393 1392 1391 1390 1388 1387 1385 1384 1383 1382 1381
1424 1421 1419 1417 1414 1412 1410 1408 1405 1403 1401 1399 1397 1395 1393 1391 1389 1388 1387 1387 1388 1388 1390 1390 1391 1392 1393 1393 1393 1392 1391 1390 1389 1389 1388 1387 1386 1385 1384 1383 1381 1380 1379